Content
SEND FEEDBACK

Daily
Averages
Monthly
Summary
United States of America

DANEVANG, TEXAS


Home > North America > United States > Texas
Elevation: 7 feet     Latitude: 29 03N     Longitude: 096 14W

WEATHER
 
SELECT A DAY
Number of Records: 277,376;   Date Range: 3/24/03 - 7/29/14
 
SHARE

PRINT THIS DATA

[ ← Previous Day ]
WEATHER ALMANAC - JANUARY 3, 2013
[ Next Day → ]
[ °C ]   °F
Weather ElementAverageHighLow
Temperature47.5 °F53.8 °F (2:35 pm)42.4 °F (7:15 am)
Dewpoint35.7 °F38.7 °F (2:35 am)32 °F (3:15 pm)
Humidity65.1 %84 % (12:35 am)46 % (2:15 pm)
Barometer30.34 in30.40 in (9:15 pm)30.28 in (12:35 am)
Wind Speed8.9 mph16.1 mph (10:15 am)
Wind Gust20.7 mph (10:15 am)
Weather ElementAverage
Visibility10 mi
Wind DirectionSSE (169.2 °)

Weather ElementTotal
Precipitation---
Heating Degree Days16.9 (Base 65)
Averaged from 71 records on January 3, 2013
WEATHER CONDITIONS BREAKOUT
WIND DIRECTION BREAKOUT
WEATHER BY HOUR - JANUARY 3, 2013
[ °C ]   °F
Local TimeTemperatureDewpointHumidityBarometerVisibilityWind DirectionWind SpeedGust SpeedPrecipitationEventsConditions
12:35 AM43.2 °F38.5 °F84 %30.28 in10.0 miNorth (360°)8.1 mphOvercast
12:55 AM43.2 °F38.3 °F83 %30.28 in10.0 miNorth (360°)9.2 mphOvercast
1:15 AM43.2 °F37.9 °F82 %30.29 in10.0 miNorth (350°)6.9 mphOvercast
1:35 AM43.2 °F37.9 °F82 %30.29 in10.0 miNorth (350°)8.1 mphOvercast
1:55 AM43.2 °F37.9 °F82 %30.29 in10.0 miNorth (10°)9.2 mphOvercast
2:15 AM43.3 °F38.1 °F82 %30.29 in10.0 miNorth (360°)8.1 mphOvercast
2:35 AM43.3 °F38.7 °F84 %30.29 in10.0 miNorth (360°)8.1 mphOvercast
2:55 AM43.3 °F38.5 °F83 %30.29 in10.0 miNorth (360°)10.4 mphOvercast
3:15 AM43.2 °F38.3 °F83 %30.29 in10.0 miNorth (10°)8.1 mphOvercast
3:35 AM43.0 °F38.1 °F83 %30.29 in10.0 miNorth (360°)9.2 mphOvercast
3:55 AM43.0 °F37.6 °F81 %30.30 in10.0 miNorth (10°)8.1 mphOvercast
4:15 AM42.8 °F37.4 °F81 %30.29 in10.0 miNorth (10°)10.4 mphOvercast
4:35 AM42.8 °F37.0 °F80 %30.30 in10.0 miNorth (10°)9.2 mphOvercast
4:55 AM42.8 °F36.9 °F80 %30.30 in10.0 miNorth (360°)9.2 mphOvercast
5:15 AM42.8 °F36.7 °F79 %30.30 in10.0 miNorth (10°)9.2 mphOvercast
5:35 AM42.8 °F36.7 °F79 %30.31 in10.0 miNorth (10°)5.8 mphOvercast
5:55 AM42.8 °F36.7 °F79 %30.32 in10.0 miNorth (10°)9.2 mphOvercast
6:15 AM42.8 °F36.7 °F79 %30.33 in10.0 miNorth (360°)8.1 mphOvercast
6:35 AM42.6 °F36.7 °F79 %30.32 in10.0 miNorth (10°)6.9 mphOvercast
6:55 AM42.6 °F36.5 °F79 %30.33 in10.0 miNNE (20°)9.2 mphOvercast
7:15 AM42.4 °F36.3 °F79 %30.34 in10.0 miNorth (10°)5.8 mphOvercast
7:35 AM42.4 °F36.1 °F78 %30.35 in10.0 miNorth (10°)9.2 mphOvercast
7:55 AM42.4 °F35.8 °F77 %30.36 in10.0 miNorth (10°)9.2 mph16.1 mphOvercast
8:15 AM42.6 °F35.8 °F77 %30.36 in10.0 miNNE (20°)11.5 mphOvercast
8:35 AM43.0 °F36.1 °F77 %30.37 in10.0 miNorth (10°)11.5 mph17.3 mphOvercast
8:55 AM43.3 °F36.0 °F75 %30.37 in10.0 miNorth (10°)10.4 mph18.4 mphOvercast
9:15 AM43.2 °F35.6 °F75 %30.37 in10.0 miNorth (10°)13.8 mph17.3 mphOvercast
9:35 AM43.5 °F35.8 °F74 %30.38 in10.0 miNNE (20°)9.2 mphOvercast
9:55 AM44.2 °F36.3 °F74 %30.39 in10.0 miNNE (20°)10.4 mph16.1 mphOvercast
10:15 AM45.3 °F36.3 °F71 %30.39 in10.0 miNNE (20°)16.1 mph20.7 mphOvercast
10:35 AM46.0 °F36.1 °F68 %30.39 in10.0 miNNE (20°)9.2 mph16.1 mphOvercast
10:55 AM47.5 °F36.9 °F67 %30.39 in10.0 miNNE (20°)13.8 mph18.4 mphOvercast
11:15 AM48.9 °F36.7 °F63 %30.38 in10.0 miNNE (30°)11.5 mph19.6 mphOvercast
11:35 AM49.3 °F36.3 °F61 %30.37 in10.0 miNNE (30°)11.5 mphOvercast
11:55 AM49.8 °F35.6 °F58 %30.37 in10.0 miNNE (20°)8.1 mphOvercast
12:15 PM50.4 °F35.1 °F56 %30.36 in10.0 miNorth (10°)8.1 mphOvercast
12:35 PM51.3 °F35.1 °F54 %30.34 in10.0 miNorth (10°)10.4 mphOvercast
12:55 PM52.0 °F34.5 °F51 %30.34 in10.0 miNorth (10°)10.4 mphOvercast
1:15 PM52.9 °F34.3 °F49 %30.33 in10.0 miNorth (350°)9.2 mphOvercast
1:35 PM53.6 °F33.8 °F47 %30.32 in10.0 miNNE (20°)9.2 mphOvercast
1:55 PM51.8 °F33.8 °F50 %30.32 in10.0 miNorth (360°)9.2 mphOvercast
2:15 PM53.6 °F33.4 °F46 %30.32 in10.0 miNorth (10°)6.9 mphOvercast
2:35 PM53.8 °F34.2 °F47 %30.33 in10.0 miNorth (350°)9.2 mphOvercast
2:55 PM53.1 °F33.4 °F47 %30.33 in10.0 miNorth (350°)10.4 mphOvercast
3:15 PM51.8 °F32.0 °F47 %30.33 in10.0 miNorth (10°)11.5 mphOvercast
3:35 PM52.2 °F32.0 °F46 %30.33 in10.0 miNorth (350°)12.7 mphOvercast
3:55 PM52.2 °F32.0 °F46 %30.34 in10.0 miNorth (360°)11.5 mphOvercast
4:15 PM51.8 °F32.0 °F47 %30.34 in10.0 miNorth (350°)9.2 mphOvercast
4:35 PM52.2 °F32.0 °F46 %30.34 in10.0 miNorth (360°)10.4 mphOvercast
4:55 PM51.8 °F32.0 °F47 %30.35 in10.0 miNNE (20°)8.1 mphOvercast
5:15 PM51.8 °F32.2 °F47 %30.35 in10.0 miNorth (10°)5.8 mphOvercast
5:35 PM51.4 °F32.5 °F49 %30.36 in10.0 miNorth (350°)5.8 mphOvercast
5:55 PM51.8 °F32.0 °F47 %30.36 in10.0 miNorth (360°)9.2 mphOvercast
6:15 PM51.4 °F32.9 °F49 %30.37 in10.0 miNorth (360°)5.8 mphOvercast
6:35 PM51.1 °F33.6 °F51 %30.38 in10.0 miNorth (350°)8.1 mphOvercast
6:55 PM50.9 °F34.5 °F54 %30.39 in10.0 miNorth (350°)8.1 mphOvercast
7:15 PM50.4 °F35.1 °F56 %30.39 in10.0 miNorth (360°)6.9 mphOvercast
7:35 PM50.4 °F35.2 °F56 %30.39 in10.0 miNorth (360°)6.9 mphOvercast
7:55 PM50.4 °F35.2 °F56 %30.39 in10.0 miNorth (350°)9.2 mphOvercast
8:15 PM50.2 °F35.6 °F57 %30.39 in10.0 miNorth (360°)8.1 mphOvercast
8:35 PM50.0 °F36.0 °F59 %30.38 in10.0 miNorth (360°)8.1 mphOvercast
8:55 PM50.0 °F36.3 °F59 %30.39 in10.0 miNorth (360°)9.2 mphOvercast
9:15 PM49.8 °F36.7 °F61 %30.40 in10.0 miNorth (350°)6.9 mphOvercast
9:35 PM49.6 °F36.7 °F61 %30.40 in10.0 miNorth (360°)8.1 mphOvercast
9:55 PM49.5 °F36.7 °F61 %30.39 in10.0 miNorth (360°)8.1 mphOvercast
10:15 PM49.3 °F36.5 °F61 %30.39 in10.0 miNorth (10°)6.9 mphOvercast
10:35 PM49.3 °F36.5 °F61 %30.38 in10.0 miNNE (20°)5.8 mphOvercast
10:55 PM49.1 °F36.9 °F63 %30.36 in10.0 miNNE (30°)6.9 mphOvercast
11:15 PM49.1 °F36.9 °F63 %30.35 in10.0 miNNE (30°)8.1 mphOvercast
11:35 PM48.9 °F36.9 °F63 %30.34 in10.0 miNNE (30°)6.9 mphOvercast
11:55 PM47.8 °F36.7 °F65 %30.35 in10.0 miNNE (20°)5.8 mphScattered Clouds
Hourly data recorded from KBYY, located miles away from Danevang, Texas







STORIES FROM OUR PARTNERS